CAPE
nan nan nan nan nan nan nan nan nan nan nan nan nan nan nan nan nan nan nan nan nan nan nan nan nan nan nan nan nan nan nan nan nan nan nan 0 1 1 3 5 5 7 9 13 13 16 17 17 17 18 18 21 23 23 27 31 31 34 38 40 40 47 54 63 63 77 80 85 87 87 89 90 92 92 87 90 90 90 91 94 94 97 98 103 103 105
nan nan nan nan nan nan nan nan nan nan nan nan nan nan nan nan nan nan nan nan nan nan nan nan nan nan nan nan nan nan nan nan nan nan nan 0 1 1 3 5 5 7 10 12 12 15 17 17 17 18 18 20 21 21 27 30 30 30 33 36 36 42 47 54 54 60 70 78 76 76 82 78 77 77 77 78 83 83 90 94 94 96 101 102 102 107
nan nan nan nan nan nan nan nan nan nan nan nan nan nan nan nan nan nan nan nan nan nan nan nan nan nan nan nan nan nan nan nan nan nan nan 0 1 1 2 5 5 6 9 12 12 14 17 17 17 17 17 18 20 20 26 25 25 26 28 31 31 35 40 46 46 50 57 62 64 64 69 68 70 70 69 75 85 85 87 92 92 96 100 101 101 105
nan nan nan nan nan nan nan nan nan nan nan nan nan nan nan nan nan nan nan nan nan nan nan nan nan nan nan nan nan nan nan nan nan nan nan 0 0 0 2 3 3 6 8 11 11 13 15 16 16 15 16 17 18 18 22 24 24 23 25 27 27 31 36 38 38 43 48 51 52 52 53 56 60 60 63 74 81 81 87 88 88 86 90 93 93 102
nan nan nan nan nan nan nan nan nan nan nan nan nan nan nan nan nan nan nan nan nan nan nan nan nan nan nan nan nan nan nan nan nan nan nan nan 0 0 1 3 3 5 7 8 8 11 13 14 14 15 15 16 17 17 22 24 24 24 24 25 25 30 34 37 37 37 39 43 43 43 48 49 56 56 58 65 69 69 72 74 74 76 79 89 89 99
nan nan nan nan nan nan nan nan nan nan nan nan nan nan nan nan nan nan nan nan nan nan nan nan nan nan nan nan nan nan nan nan nan nan nan nan 0 0 0 2 2 4 5 5 5 7 8 10 10 12 15 17 18 18 22 25 25 25 25 26 26 29 33 33 33 34 36 37 39 39 39 43 48 48 50 54 58 58 65 69 69 69 76 82 82 92
nan nan nan nan nan nan nan nan nan nan nan nan nan nan nan nan nan nan nan nan nan nan nan nan nan nan nan nan nan nan nan nan nan nan nan nan 0 0 1 2 2 3 4 4 4 5 7 9 9 10 13 17 17 17 20 20 20 24 25 27 27 30 31 33 33 33 33 33 35 35 34 37 38 38 43 45 49 49 56 62 62 69 73 83 83 84
nan nan nan nan nan nan nan nan nan nan nan nan nan nan nan nan nan nan nan nan nan nan nan nan nan nan nan nan nan nan nan nan nan nan nan nan nan nan nan 1 1 2 3 3 3 4 5 7 7 9 12 12 15 15 16 16 16 16 16 17 17 17 20 22 22 24 25 25 27 27 28 28 31 31 32 34 37 37 42 47 47 58 66 71 71 80
nan nan nan nan nan nan nan nan nan nan nan nan nan nan nan nan nan nan nan nan nan nan nan nan nan nan nan nan nan nan nan nan nan nan nan nan nan nan nan 1 1 2 3 3 3 3 4 6 6 7 8 9 10 10 10 10 10 10 10 11 11 13 14 15 15 17 20 22 25 25 26 26 27 27 30 32 32 32 35 39 39 48 60 71 71 84
nan nan nan nan nan nan nan nan nan nan nan nan nan nan nan nan nan nan nan nan nan nan nan nan nan nan nan nan nan nan nan nan nan nan 0 nan 2 2 0 0 0 nan 1 2 2 2 2 2 2 2 3 4 4 4 5 4 4 4 4 5 5 7 8 11 11 14 17 20 23 23 25 27 28 28 31 33 33 33 34 37 37 41 53 68 68 85
nan nan nan nan nan nan nan nan nan nan nan nan nan nan nan nan nan nan nan nan nan nan nan nan nan nan nan nan nan nan nan nan nan nan nan nan 0 0 0 0 0 0 0 0 0 nan nan nan nan nan nan 0 0 0 0 0 0 1 1 2 2 4 6 8 8 12 15 19 23 23 25 29 33 33 36 36 37 37 36 39 39 44 51 62 62 76
nan nan nan nan nan nan nan nan nan nan nan nan nan nan nan nan nan nan nan nan nan nan nan nan nan nan nan nan nan nan nan nan nan nan nan nan nan nan nan nan nan nan nan nan nan nan nan nan nan nan nan nan nan nan nan nan nan nan 0 1 1 3 6 8 8 12 15 18 22 22 25 29 33 33 37 37 38 38 39 41 41 45 49 60 60 72
nan nan nan nan nan nan nan nan nan nan nan nan nan nan nan nan nan nan nan nan nan nan nan nan nan nan nan nan nan nan nan nan nan nan nan nan nan nan nan nan nan nan nan nan nan nan nan nan nan nan nan nan nan nan nan nan nan nan 0 2 2 3 5 7 7 11 16 20 21 21 25 27 30 30 33 36 40 40 41 42 42 45 48 57 57 69
nan nan nan nan nan nan nan nan nan nan nan nan nan nan nan nan nan nan nan nan nan nan nan nan nan nan nan nan nan nan nan nan nan nan nan nan nan nan nan nan nan nan nan nan nan nan nan nan nan nan nan nan nan nan nan nan nan nan 0 1 1 2 5 8 8 13 17 19 23 23 23 25 27 27 30 34 38 38 40 43 43 43 47 54 54 63
nan nan nan nan nan nan nan nan nan nan nan nan nan nan nan nan nan nan nan nan nan nan nan nan nan nan nan nan nan nan nan nan nan nan nan nan nan nan nan nan nan nan nan nan nan nan nan nan nan nan nan nan nan nan nan nan nan 0 0 2 2 3 6 10 10 14 19 21 23 23 23 23 26 26 28 32 39 39 42 45 45 44 48 56 56 61
nan nan nan nan nan nan nan nan nan nan nan nan nan nan nan nan nan nan nan nan nan nan nan nan nan nan nan nan nan nan nan nan nan nan nan nan nan nan nan nan nan nan nan nan nan nan nan nan nan nan nan nan nan nan nan nan nan 0 1 3 3 5 8 12 12 15 17 19 21 21 24 23 25 25 29 33 38 38 41 44 44 44 49 50 50 57
nan nan nan nan nan nan nan nan nan nan nan nan nan nan nan nan nan nan nan nan nan nan nan nan nan nan nan nan nan nan nan nan nan nan nan nan nan nan nan nan nan nan nan nan nan nan nan nan nan nan nan nan nan nan nan 0 0 1 2 4 4 5 8 10 10 13 15 17 21 21 21 23 24 24 27 30 35 35 42 42 42 46 48 51 51 56
nan nan nan nan nan nan nan nan nan nan nan nan nan nan nan nan nan nan nan nan nan nan nan nan nan nan nan nan nan nan nan nan nan nan nan nan nan nan nan nan nan nan nan nan nan nan nan nan nan nan nan nan nan nan nan 0 0 1 2 3 3 4 6 8 8 10 13 16 19 19 22 21 23 23 26 28 34 34 39 43 43 48 49 52 52 56
nan nan nan nan nan nan nan nan nan nan nan nan nan nan nan nan nan nan nan nan nan nan nan nan nan nan nan nan nan nan nan nan nan nan nan nan nan nan nan nan nan nan nan nan nan nan nan nan nan nan nan nan nan nan nan 0 0 1 1 2 2 3 5 5 5 7 10 14 18 18 22 22 24 24 26 27 33 33 39 40 40 45 49 53 53 56
nan nan nan nan nan nan nan nan nan nan nan nan nan nan nan nan nan nan nan nan nan nan nan 0 0 nan nan nan nan nan nan nan nan nan nan nan nan nan nan nan nan nan nan nan nan nan nan nan nan nan nan nan nan nan nan nan nan 0 1 1 1 2 3 5 5 6 9 12 16 16 19 23 24 24 25 28 33 33 37 39 39 43 47 49 49 54
nan nan nan nan nan nan nan nan nan nan nan nan nan nan nan nan nan nan nan nan nan 1 3 1 1 nan nan nan nan nan nan nan nan nan nan nan nan nan nan nan nan nan nan nan nan nan nan nan nan nan nan nan nan nan nan nan nan 0 0 0 0 1 2 4 4 5 8 11 14 14 18 22 24 24 24 26 30 30 37 37 37 41 46 49 49 52
nan nan nan nan nan nan nan nan nan nan nan nan nan nan nan 0 0 0 0 3 3 6 5 1 1 nan nan nan nan nan nan nan nan nan nan nan nan nan nan nan nan nan nan nan nan nan nan nan nan nan nan nan nan nan nan nan nan nan 0 0 0 1 2 3 3 6 9 10 13 13 16 20 22 22 25 26 28 28 35 38 38 41 45 48 48 50
nan nan nan nan nan nan nan nan nan nan nan nan 0 0 0 3 4 4 4 7 7 4 0 nan nan nan nan nan nan nan nan nan nan nan nan nan nan nan nan nan nan nan nan nan nan nan nan nan nan nan nan nan nan nan nan nan nan nan nan 0 0 1 2 4 4 6 8 11 12 12 16 18 21 21 25 25 27 27 30 36 36 39 40 46 46 48
nan nan nan nan nan nan nan nan nan nan nan nan nan nan 4 7 8 8 11 5 5 1 0 nan nan nan nan nan nan nan nan nan nan nan nan nan nan nan nan nan nan nan nan nan nan nan nan nan nan nan nan nan nan nan nan nan nan nan nan 0 0 1 2 4 4 5 7 9 12 12 14 17 20 20 23 24 26 26 27 31 31 37 40 41 41 44
nan nan nan nan nan nan nan nan nan nan nan 1 2 2 4 7 10 10 3 1 1 nan 0 0 0 nan nan nan nan nan nan nan nan nan nan nan nan nan nan nan nan nan nan nan nan nan nan nan nan nan nan nan nan nan nan nan nan nan nan 0 0 0 1 3 3 4 6 8 9 9 13 15 18 18 22 24 25 25 25 28 28 32 37 39 39 42
nan nan nan nan nan 4 6 9 11 11 10 4 3 3 2 4 2 2 1 nan nan nan nan 0 0 nan nan nan nan nan nan nan nan nan nan nan nan nan nan nan nan nan nan nan nan nan nan nan nan nan nan nan nan nan nan nan nan nan nan 0 0 1 1 2 2 3 5 7 8 8 12 14 16 16 18 21 24 24 27 28 28 33 35 36 36 39
nan nan 1 5 5 7 10 14 17 17 19 14 4 4 2 1 1 1 0 nan nan nan nan nan nan nan nan nan nan nan nan nan nan nan nan nan nan nan nan nan nan nan nan nan nan nan nan nan nan nan nan nan nan nan nan nan nan nan nan 0 0 0 0 1 1 3 4 6 7 7 9 12 16 16 17 20 24 24 26 28 28 32 36 34 34 35
nan nan 0 1 1 2 4 5 8 8 11 14 17 17 7 1 nan nan nan nan nan nan nan nan nan nan nan nan nan nan nan nan nan nan nan nan nan nan nan nan nan nan nan nan nan nan nan nan nan nan nan nan nan nan nan nan nan nan nan nan nan 0 0 0 0 2 3 4 6 6 8 11 14 14 17 20 23 23 26 29 29 31 34 24 24 7
1 1 1 1 1 1 1 1 3 3 5 9 13 13 6 nan nan nan nan nan nan nan nan nan nan nan nan nan nan nan nan nan nan nan nan nan nan nan nan nan nan nan nan nan nan nan nan nan nan nan nan nan nan nan nan nan nan nan nan nan nan nan nan 0 0 1 2 4 6 6 7 10 13 13 16 19 21 21 25 28 28 31 25 15 15 3
4 5 5 2 2 1 1 nan 0 0 2 4 5 5 3 nan nan nan nan nan nan nan nan 0 0 0 nan nan nan nan nan nan nan nan nan nan nan nan nan nan nan nan nan nan nan nan nan nan nan nan nan nan nan nan nan nan nan nan nan nan nan nan nan 1 1 2 3 4 6 6 7 10 13 13 16 17 20 20 23 25 25 22 8 3 3 1
nan nan nan nan nan nan nan nan nan nan nan 0 1 1 1 nan nan nan nan nan nan nan 0 0 0 0 nan nan nan nan nan nan nan nan nan nan nan nan nan nan nan nan nan nan nan nan nan nan nan nan nan nan nan nan nan nan nan nan nan nan nan nan nan 0 0 1 3 5 6 6 8 10 13 13 14 16 19 19 21 25 25 16 2 1 1 1
nan nan nan nan nan nan nan nan nan nan nan nan nan nan nan nan nan nan nan nan nan nan 0 0 0 nan 0 nan nan nan nan nan nan nan nan nan nan nan nan nan nan nan nan nan nan nan nan nan nan nan nan nan nan nan nan nan nan nan nan nan nan nan nan 0 0 0 0 4 6 6 8 8 9 9 12 13 15 15 18 22 22 20 4 1 1 2
nan nan nan nan nan nan nan nan nan nan nan nan nan nan nan nan nan nan nan nan nan nan nan 0 0 nan 0 nan nan nan nan nan nan nan nan nan nan nan nan nan nan nan nan nan nan nan nan nan nan nan nan nan nan nan nan nan nan nan nan nan nan nan nan nan nan nan nan nan nan nan 5 6 8 8 9 12 15 15 17 21 21 24 19 1 1 2
nan nan nan nan nan nan nan nan nan nan nan nan nan nan nan nan nan nan 0 0 0 0 0 0 0 nan nan nan nan nan nan nan nan nan 0 nan nan nan nan nan nan nan nan nan nan nan nan nan nan nan nan nan nan nan nan nan nan nan nan nan nan nan nan nan nan nan nan nan nan nan nan nan 4 4 5 8 11 11 15 22 22 27 33 18 18 5
nan nan nan nan nan nan nan nan nan nan nan nan nan nan nan nan nan nan 0 0 0 0 0 0 0 nan nan nan nan nan nan nan nan nan 2 nan nan nan nan nan nan nan nan nan nan nan nan nan nan nan nan nan nan nan nan nan nan nan nan nan nan nan nan nan nan nan nan nan nan nan nan nan nan nan nan 4 11 11 19 27 27 32 38 44 44 28
nan nan nan nan nan nan nan nan nan nan nan nan nan nan nan nan nan nan nan nan nan 0 1 0 0 1 nan nan nan nan nan nan nan nan 2 0 nan nan nan nan nan 0 nan nan nan nan nan nan nan nan 0 nan nan nan nan nan nan nan nan nan nan nan nan nan nan nan nan nan nan nan nan nan nan nan nan 7 16 16 22 28 28 32 33 38 38 39
nan nan nan nan nan nan nan nan nan nan nan nan nan nan nan nan 0 0 nan 0 0 0 1 2 2 1 3 0 nan nan nan nan 0 0 2 0 0 0 nan nan nan 0 nan nan nan nan nan nan nan nan nan nan nan nan nan nan nan nan nan nan nan nan nan nan nan nan nan nan nan nan nan nan nan nan nan 8 9 9 16 24 24 23 28 30 30 32
nan nan nan nan nan nan nan nan nan nan nan nan nan nan nan nan nan nan nan 0 0 nan 0 0 0 0 4 6 1 1 0 0 nan nan 0 nan nan nan nan nan nan 1 nan nan nan nan nan nan nan nan nan nan nan nan nan nan nan nan nan nan nan nan nan nan nan nan nan nan nan nan nan nan nan nan nan nan nan nan nan nan nan 7 19 22 22 29
nan nan nan nan nan nan nan nan nan nan nan nan nan nan nan nan nan nan 0 1 1 1 0 0 0 nan nan 0 4 4 5 0 nan nan nan nan nan nan nan nan nan nan nan nan nan nan nan nan nan nan nan nan nan nan nan nan nan nan nan nan nan nan nan nan nan nan nan nan nan nan nan nan nan nan nan nan nan nan nan nan nan nan nan nan nan 12
nan nan nan nan nan nan nan nan nan nan nan nan nan nan nan 0 0 0 0 1 1 1 0 0 0 nan nan 0 2 2 1 nan nan nan nan nan nan nan nan nan nan nan nan nan nan nan nan nan nan nan nan nan nan nan nan nan nan nan 0 nan nan nan nan nan nan nan nan nan nan nan nan nan nan nan nan nan nan nan nan nan nan nan nan nan nan nan
nan nan nan nan nan nan nan nan nan nan nan nan nan nan 0 0 0 0 nan 0 0 0 0 0 0 nan 0 nan nan nan nan nan nan nan nan nan nan nan nan nan nan nan nan nan nan nan nan nan nan nan nan nan nan nan nan nan nan 0 3 nan nan nan nan nan nan nan nan nan nan nan nan nan nan nan nan nan nan nan nan nan nan nan nan nan nan nan
nan nan nan nan nan nan nan nan nan nan 0 nan 0 0 0 0 0 0 0 nan nan nan nan 0 0 0 nan nan nan nan nan nan nan nan nan nan nan nan nan nan nan nan nan nan nan nan nan nan nan nan nan nan nan nan nan nan nan nan 0 nan nan nan nan nan nan nan nan nan nan nan 0 nan nan nan nan nan nan nan nan nan nan nan nan nan nan nan
nan nan nan nan nan nan nan 0 0 0 0 0 0 0 0 nan nan nan 0 0 0 0 nan 0 0 0 nan nan nan nan nan nan nan nan nan nan nan nan nan nan nan nan nan nan nan nan nan nan nan nan nan nan nan nan nan nan nan nan nan nan nan nan nan nan nan nan nan nan nan nan nan nan nan nan nan nan nan nan nan nan nan 8 5 nan nan nan
nan nan nan nan nan nan 0 1 0 0 0 0 0 0 nan nan 1 1 1 0 0 0 0 0 0 0 nan nan nan nan nan nan nan nan nan 0 nan nan nan nan nan nan nan nan nan nan nan nan nan nan nan nan nan nan nan nan nan nan nan nan nan nan nan nan nan nan nan nan nan nan nan nan nan nan nan nan nan nan nan nan nan nan nan nan nan nan
nan nan nan nan nan 0 0 0 0 0 0 0 0 0 0 0 1 1 0 nan nan nan 0 1 1 0 nan nan nan nan nan nan nan nan nan 0 9 9 2 nan nan nan nan nan nan nan nan nan nan nan nan nan nan nan nan nan nan nan nan nan nan nan nan nan nan nan nan nan nan nan nan nan nan nan nan nan nan nan nan nan nan nan nan nan nan nan
nan nan nan 0 0 0 1 1 0 0 0 0 0 0 0 0 0 0 1 0 0 nan 0 2 2 nan nan nan nan nan nan nan nan nan nan nan nan nan 0 nan nan nan nan nan nan nan nan nan nan nan nan nan nan nan nan nan nan nan nan nan nan nan nan nan nan nan nan nan nan nan nan nan nan nan nan nan nan nan nan nan nan nan nan nan nan nan
nan nan nan nan nan 0 0 1 0 0 0 1 0 0 nan 0 0 0 0 1 1 0 1 2 2 nan nan nan nan nan nan nan nan nan nan nan nan nan nan nan nan 0 nan nan nan nan nan nan nan nan nan nan nan nan nan nan nan nan nan nan nan nan nan nan nan nan nan nan nan nan nan nan nan nan nan nan nan nan nan nan nan nan nan nan nan nan
0 0 0 0 0 0 0 0 0 0 0 0 0 0 nan 0 0 0 0 1 1 1 3 0 0 nan nan nan nan nan nan nan nan nan nan nan nan nan nan nan nan nan 0 0 0 1 nan nan nan nan nan nan nan nan nan nan nan nan nan nan nan nan nan nan nan nan nan nan nan nan nan nan nan nan nan nan nan nan nan nan nan nan nan nan nan nan
0 0 0 0 0 0 0 0 0 0 nan 0 0 0 nan 2 7 7 0 0 0 0 nan nan nan nan nan nan nan nan 0 0 nan nan nan nan nan nan nan nan nan nan nan nan nan 0 1 1 1 1 nan nan nan nan nan nan nan nan nan nan nan nan nan nan nan nan nan nan nan nan nan nan nan nan nan nan nan nan nan nan nan nan nan nan nan nan
0 0 0 0 0 0 nan nan nan nan nan 0 0 0 0 nan 0 0 0 0 0 nan nan nan nan nan nan nan nan nan nan nan nan nan nan nan nan nan nan nan nan nan nan nan nan nan nan nan nan 1 5 0 nan nan nan nan nan nan nan nan nan nan nan nan nan nan nan nan nan nan nan nan nan nan nan nan nan nan nan nan nan nan nan nan nan nan
0 0 nan nan nan 0 nan nan 0 0 nan nan nan nan nan nan nan nan nan 0 0 0 nan nan nan nan nan nan nan nan nan nan nan nan nan nan nan nan nan nan nan nan nan nan nan nan nan nan nan nan nan 5 nan nan nan nan nan nan nan nan nan nan nan nan nan nan nan nan nan nan nan nan nan nan nan nan nan nan nan nan nan nan nan nan nan nan
CIN
nan nan nan nan nan nan nan nan nan nan nan nan nan nan nan nan nan nan nan nan nan nan nan nan nan nan nan nan nan nan nan nan nan nan nan -0 -0 -0 -0 -0 -0 -0 -0 -0 -0 -0 -0 -0 -0 -0 -0 -0 -0 -0 -0 -0 -0 -0 -0 -0 -0 -0 -0 -0 -0 -0 -0 -0 -0 -0 -0 -0 -0 -0 -0 -0 -0 -0 -0 -0 -0 -0 -0 -0 -0 -0
nan nan nan nan nan nan nan nan nan nan nan nan nan nan nan nan nan nan nan nan nan nan nan nan nan nan nan nan nan nan nan nan nan nan nan -0 -0 -0 -0 -0 -0 -0 -0 -0 -0 -0 -0 -0 -0 -0 -0 -0 -0 -0 -0 -0 -0 -0 -0 -0 -0 -0 -0 -0 -0 -0 -0 -0 -0 -0 -0 -0 -0 -0 -0 -0 -0 -0 -0 -0 -0 -0 -0 -0 -0 -0
nan nan nan nan nan nan nan nan nan nan nan nan nan nan nan nan nan nan nan nan nan nan nan nan nan nan nan nan nan nan nan nan nan nan nan -0 -0 -0 -0 -0 -0 -0 -0 -0 -0 -0 -0 -0 -0 -0 -0 -0 -0 -0 -0 -0 -0 -0 -0 -0 -0 -0 -0 -0 -0 -0 -0 -0 -0 -0 -0 -0 -0 -0 -0 -0 -0 -0 -0 -0 -0 -0 -0 -0 -0 -0
nan nan nan nan nan nan nan nan nan nan nan nan nan nan nan nan nan nan nan nan nan nan nan nan nan nan nan nan nan nan nan nan nan nan nan -0 -0 -0 -0 -0 -0 -0 -0 -0 -0 -0 -0 -0 -0 -0 -0 -0 -0 -0 -0 -0 -0 -0 -0 -0 -0 -0 -0 -0 -0 -0 -0 -0 -0 -0 -0 -0 -0 -0 -0 -0 -0 -0 -0 -0 -0 -0 -0 -0 -0 -0
nan nan nan nan nan nan nan nan nan nan nan nan nan nan nan nan nan nan nan nan nan nan nan nan nan nan nan nan nan nan nan nan nan nan nan nan -0 -0 -0 -0 -0 -0 -0 -0 -0 -0 -0 -0 -0 -0 -0 -0 -0 -0 -0 -0 -0 -0 -0 -0 -0 -0 -0 -0 -0 -0 -0 -0 -0 -0 -0 -0 -0 -0 -0 -0 -0 -0 -0 -0 -0 -0 -0 -0 -0 -0
nan nan nan nan nan nan nan nan nan nan nan nan nan nan nan nan nan nan nan nan nan nan nan nan nan nan nan nan nan nan nan nan nan nan nan nan -0 -0 -0 -0 -0 -0 -0 -0 -0 -0 -0 -0 -0 -0 -0 -0 -0 -0 -0 -0 -0 -0 -0 -0 -0 -0 -0 -0 -0 -0 -0 -0 -0 -0 -0 -0 -0 -0 -0 -0 -0 -0 -0 -0 -0 -0 -0 -0 -0 -0
nan nan nan nan nan nan nan nan nan nan nan nan nan nan nan nan nan nan nan nan nan nan nan nan nan nan nan nan nan nan nan nan nan nan nan nan -0 -0 -0 -0 -0 -0 -0 -0 -0 -0 -0 -0 -0 -0 -0 -0 -0 -0 -0 -0 -0 -0 -0 -0 -0 -0 -0 -0 -0 -0 -0 -0 -0 -0 -0 -0 -0 -0 -0 -0 -0 -0 -0 -0 -0 -0 -0 -0 -0 -0
nan nan nan nan nan nan nan nan nan nan nan nan nan nan nan nan nan nan nan nan nan nan nan nan nan nan nan nan nan nan nan nan nan nan nan nan nan nan nan -0 -0 -0 -0 -0 -0 -0 -0 -0 -0 -0 -0 -0 -0 -0 -0 -0 -0 -0 -0 -0 -0 -0 -0 -0 -0 -0 -0 -0 -0 -0 -0 -0 -0 -0 -0 -0 -0 -0 -0 -0 -0 -0 -0 -0 -0 -0
nan nan nan nan nan nan nan nan nan nan nan nan nan nan nan nan nan nan nan nan nan nan nan nan nan nan nan nan nan nan nan nan nan nan nan nan nan nan nan -0 -0 -0 -0 -0 -0 -0 -0 -0 -0 -0 -0 -0 -0 -0 -0 -0 -0 -0 -0 -0 -0 -0 -0 -0 -0 -0 -0 -0 -0 -0 -0 -0 -0 -0 -0 -0 -0 -0 -0 -0 -0 -0 -0 -0 -0 -0
nan nan nan nan nan nan nan nan nan nan nan nan nan nan nan nan nan nan nan nan nan nan nan nan nan nan nan nan nan nan nan nan nan nan -0 nan -0 -0 -0 -0 -0 nan -0 -0 -0 -0 -0 -0 -0 -0 -0 -0 -0 -0 -0 -0 -0 -0 -0 -0 -0 -0 -0 -0 -0 -0 -0 -0 -0 -0 -0 -0 -0 -0 -0 -0 -0 -0 -0 -0 -0 -0 -0 -0 -0 -0
nan nan nan nan nan nan nan nan nan nan nan nan nan nan nan nan nan nan nan nan nan nan nan nan nan nan nan nan nan nan nan nan nan nan nan nan -0 -0 -0 -0 -0 -0 -0 -0 -0 nan nan nan nan nan nan -0 -0 -0 -0 -0 -0 -0 -0 -0 -0 -0 -0 -0 -0 -0 -0 -0 -0 -0 -0 -0 -0 -0 -0 -0 -0 -0 -0 -0 -0 -0 -0 -0 -0 -0
nan nan nan nan nan nan nan nan nan nan nan nan nan nan nan nan nan nan nan nan nan nan nan nan nan nan nan nan nan nan nan nan nan nan nan nan nan nan nan nan nan nan nan nan nan nan nan nan nan nan nan nan nan nan nan nan nan nan -0 -0 -0 -0 -0 -0 -0 -0 -0 -0 -0 -0 -0 -0 -0 -0 -0 -0 -0 -0 -0 -0 -0 -0 -0 -0 -0 -0
nan nan nan nan nan nan nan nan nan nan nan nan nan nan nan nan nan nan nan nan nan nan nan nan nan nan nan nan nan nan nan nan nan nan nan nan nan nan nan nan nan nan nan nan nan nan nan nan nan nan nan nan nan nan nan nan nan nan -0 -0 -0 -0 -0 -0 -0 -0 -0 -0 -0 -0 -0 -0 -0 -0 -0 -0 -0 -0 -0 -0 -0 -0 -0 -0 -0 -0
nan nan nan nan nan nan nan nan nan nan nan nan nan nan nan nan nan nan nan nan nan nan nan nan nan nan nan nan nan nan nan nan nan nan nan nan nan nan nan nan nan nan nan nan nan nan nan nan nan nan nan nan nan nan nan nan nan nan -0 -0 -0 -0 -0 -0 -0 -0 -0 -0 -0 -0 -0 -0 -0 -0 -0 -0 -0 -0 -0 -0 -0 -0 -0 -0 -0 -0
nan nan nan nan nan nan nan nan nan nan nan nan nan nan nan nan nan nan nan nan nan nan nan nan nan nan nan nan nan nan nan nan nan nan nan nan nan nan nan nan nan nan nan nan nan nan nan nan nan nan nan nan nan nan nan nan nan -0 -0 -0 -0 -0 -0 -0 -0 -0 -0 -0 -0 -0 -0 -0 -0 -0 -0 -0 -0 -0 -0 -0 -0 -0 -0 -0 -0 -0
nan nan nan nan nan nan nan nan nan nan nan nan nan nan nan nan nan nan nan nan nan nan nan nan nan nan nan nan nan nan nan nan nan nan nan nan nan nan nan nan nan nan nan nan nan nan nan nan nan nan nan nan nan nan nan nan nan -0 -0 -0 -0 -0 -0 -0 -0 -0 -0 -0 -0 -0 -0 -0 -0 -0 -0 -0 -0 -0 -0 -0 -0 -0 -0 -0 -0 -0
nan nan nan nan nan nan nan nan nan nan nan nan nan nan nan nan nan nan nan nan nan nan nan nan nan nan nan nan nan nan nan nan nan nan nan nan nan nan nan nan nan nan nan nan nan nan nan nan nan nan nan nan nan nan nan -0 -0 -0 -0 -0 -0 -0 -0 -0 -0 -0 -0 -0 -0 -0 -0 -0 -0 -0 -0 -0 -0 -0 -0 -0 -0 -0 -0 -0 -0 -0
nan nan nan nan nan nan nan nan nan nan nan nan nan nan nan nan nan nan nan nan nan nan nan nan nan nan nan nan nan nan nan nan nan nan nan nan nan nan nan nan nan nan nan nan nan nan nan nan nan nan nan nan nan nan nan -0 -0 -0 -0 -0 -0 -0 -0 -0 -0 -0 -0 -0 -0 -0 -0 -0 -0 -0 -0 -0 -0 -0 -0 -0 -0 -0 -0 -0 -0 -0
nan nan nan nan nan nan nan nan nan nan nan nan nan nan nan nan nan nan nan nan nan nan nan nan nan nan nan nan nan nan nan nan nan nan nan nan nan nan nan nan nan nan nan nan nan nan nan nan nan nan nan nan nan nan nan -0 -0 -0 -0 -0 -0 -0 -0 -0 -0 -0 -0 -0 -0 -0 -0 -0 -0 -0 -0 -0 -0 -0 -0 -0 -0 -0 -0 -0 -0 -0
nan nan nan nan nan nan nan nan nan nan nan nan nan nan nan nan nan nan nan nan nan nan nan -6 -6 nan nan nan nan nan nan nan nan nan nan nan nan nan nan nan nan nan nan nan nan nan nan nan nan nan nan nan nan nan nan nan nan -0 -0 -0 -0 -0 -0 -0 -0 -0 -0 -0 -0 -0 -0 -0 -0 -0 -0 -0 -0 -0 -0 -0 -0 -0 -0 -0 -0 -0
nan nan nan nan nan nan nan nan nan nan nan nan nan nan nan nan nan nan nan nan nan -10 -8 -4 -4 nan nan nan nan nan nan nan nan nan nan nan nan nan nan nan nan nan nan nan nan nan nan nan nan nan nan nan nan nan nan nan nan -0 -0 -0 -0 -0 -0 -0 -0 -0 -0 -0 -0 -0 -0 -0 -0 -0 -0 -0 -0 -0 -0 -0 -0 -0 -0 -0 -0 -0
nan nan nan nan nan nan nan nan nan nan nan nan nan nan nan -4 -4 -4 -7 -6 -6 -3 -2 -2 -2 nan nan nan nan nan nan nan nan nan nan nan nan nan nan nan nan nan nan nan nan nan nan nan nan nan nan nan nan nan nan nan nan nan -0 -0 -0 -0 -0 -0 -0 -0 -0 -0 -0 -0 -0 -0 -0 -0 -0 -0 -0 -0 -0 -0 -0 -0 -0 -0 -0 -0
nan nan nan nan nan nan nan nan nan nan nan nan -3 -3 -5 -1 -1 -1 -1 -3 -3 -3 -5 nan nan nan nan nan nan nan nan nan nan nan nan nan nan nan nan nan nan nan nan nan nan nan nan nan nan nan nan nan nan nan nan nan nan nan nan -0 -0 -0 -0 -0 -0 -0 -0 -0 -0 -0 -0 -0 -0 -0 -0 -0 -0 -0 -0 -0 -0 -0 -0 -0 -0 -0
nan nan nan nan nan nan nan nan nan nan nan nan nan nan -16 -9 -4 -4 -2 -2 -2 -8 -4 nan nan nan nan nan nan nan nan nan nan nan nan nan nan nan nan nan nan nan nan nan nan nan nan nan nan nan nan nan nan nan nan nan nan nan nan -0 -0 -0 -0 -0 -0 -0 -0 -0 -0 -0 -0 -0 -0 -0 -0 -0 -0 -0 -0 -0 -0 -0 -0 -0 -0 -0
nan nan nan nan nan nan nan nan nan nan nan -22 -19 -19 -18 -10 -2 -2 -5 -8 -8 nan -4 -5 -5 nan nan nan nan nan nan nan nan nan nan nan nan nan nan nan nan nan nan nan nan nan nan nan nan nan nan nan nan nan nan nan nan nan nan -0 -0 -0 -0 -0 -0 -0 -0 -0 -0 -0 -0 -0 -0 -0 -0 -0 -0 -0 -0 -0 -0 -0 -0 -0 -0 -0
nan nan nan nan nan -0 -0 -0 -0 -0 -0 -7 -6 -6 -8 -0 -6 -6 -6 nan nan nan nan -2 -2 nan nan nan nan nan nan nan nan nan nan nan nan nan nan nan nan nan nan nan nan nan nan nan nan nan nan nan nan nan nan nan nan nan nan -0 -0 -0 -0 -0 -0 -0 -0 -0 -0 -0 -0 -0 -0 -0 -0 -0 -0 -0 -0 -0 -0 -0 -0 -0 -0 -0
nan nan -0 -0 -0 -0 -0 -0 -0 -0 -0 -0 -0 -0 -3 -6 -4 -4 -1 nan nan nan nan nan nan nan nan nan nan nan nan nan nan nan nan nan nan nan nan nan nan nan nan nan nan nan nan nan nan nan nan nan nan nan nan nan nan nan nan -0 -0 -0 -0 -0 -0 -0 -0 -0 -0 -0 -0 -0 -0 -0 -0 -0 -0 -0 -0 -0 -0 -0 -0 -0 -0 -0
nan nan -0 -0 -0 -0 -0 -0 -0 -0 -0 -0 -0 -0 -0 -7 nan nan nan nan nan nan nan nan nan nan nan nan nan nan nan nan nan nan nan nan nan nan nan nan nan nan nan nan nan nan nan nan nan nan nan nan nan nan nan nan nan nan nan nan nan -0 -0 -0 -0 -0 -0 -0 -0 -0 -0 -0 -0 -0 -0 -0 -0 -0 -0 -0 -0 -0 -0 -0 -0 -12
-0 -0 -0 -0 -0 -0 -0 -0 -0 -0 -0 -0 -0 -0 -0 nan nan nan nan nan nan nan nan nan nan nan nan nan nan nan nan nan nan nan nan nan nan nan nan nan nan nan nan nan nan nan nan nan nan nan nan nan nan nan nan nan nan nan nan nan nan nan nan -0 -0 -0 -0 -0 -0 -0 -0 -0 -0 -0 -0 -0 -0 -0 -0 -0 -0 -0 -0 -0 -0 -17
-0 -0 -0 -0 -0 -0 -0 nan -0 -0 -0 -0 -0 -0 -0 nan nan nan nan nan nan nan nan -0 -0 -1 nan nan nan nan nan nan nan nan nan nan nan nan nan nan nan nan nan nan nan nan nan nan nan nan nan nan nan nan nan nan nan nan nan nan nan nan nan -0 -0 -0 -0 -0 -0 -0 -0 -0 -0 -0 -0 -0 -0 -0 -0 -0 -0 -0 -4 -17 -17 -24
nan nan nan nan nan nan nan nan nan nan nan -0 -0 -0 -0 nan nan nan nan nan nan nan -1 -0 -0 -1 nan nan nan nan nan nan nan nan nan nan nan nan nan nan nan nan nan nan nan nan nan nan nan nan nan nan nan nan nan nan nan nan nan nan nan nan nan -0 -0 -0 -0 -0 -0 -0 -0 -0 -0 -0 -0 -0 -0 -0 -0 -0 -0 -0 -17 -26 -26 -27
nan nan nan nan nan nan nan nan nan nan nan nan nan nan nan nan nan nan nan nan nan nan -3 -1 -1 nan -1 nan nan nan nan nan nan nan nan nan nan nan nan nan nan nan nan nan nan nan nan nan nan nan nan nan nan nan nan nan nan nan nan nan nan nan nan -0 -0 -0 -0 -0 -0 -0 -0 -0 -0 -0 -0 -0 -0 -0 -0 -0 -0 -0 -12 -27 -27 -21
nan nan nan nan nan nan nan nan nan nan nan nan nan nan nan nan nan nan nan nan nan nan nan -2 -2 nan -1 nan nan nan nan nan nan nan nan nan nan nan nan nan nan nan nan nan nan nan nan nan nan nan nan nan nan nan nan nan nan nan nan nan nan nan nan nan nan nan nan nan nan nan -0 -0 -0 -0 -0 -0 -0 -0 -0 -0 -0 -0 -0 -26 -26 -21
nan nan nan nan nan nan nan nan nan nan nan nan nan nan nan nan nan nan -0 -4 -4 -7 -7 -4 -4 nan nan nan nan nan nan nan nan nan -1 nan nan nan nan nan nan nan nan nan nan nan nan nan nan nan nan nan nan nan nan nan nan nan nan nan nan nan nan nan nan nan nan nan nan nan nan nan -0 -0 -0 -0 -0 -0 -0 -0 -0 -0 -0 -3 -3 -16
nan nan nan nan nan nan nan nan nan nan nan nan nan nan nan nan nan nan -5 -4 -4 -7 -8 -7 -7 nan nan nan nan nan nan nan nan nan -0 nan nan nan nan nan nan nan nan nan nan nan nan nan nan nan nan nan nan nan nan nan nan nan nan nan nan nan nan nan nan nan nan nan nan nan nan nan nan nan nan -0 -0 -0 -0 -0 -0 -0 -0 -0 -0 -0
nan nan nan nan nan nan nan nan nan nan nan nan nan nan nan nan nan nan nan nan nan -2 -3 -8 -8 -7 nan nan nan nan nan nan nan nan -0 -6 nan nan nan nan nan -5 nan nan nan nan nan nan nan nan -0 nan nan nan nan nan nan nan nan nan nan nan nan nan nan nan nan nan nan nan nan nan nan nan nan -0 -0 -0 -0 -0 -0 -0 -0 -0 -0 -0
nan nan nan nan nan nan nan nan nan nan nan nan nan nan nan nan -8 -8 nan -21 -21 -12 -4 -0 -0 -3 -1 -10 nan nan nan nan -1 -1 -0 -10 -6 -6 nan nan nan -1 nan nan nan nan nan nan nan nan nan nan nan nan nan nan nan nan nan nan nan nan nan nan nan nan nan nan nan nan nan nan nan nan nan -0 -0 -0 -0 -0 -0 -0 -0 -0 -0 -0
nan nan nan nan nan nan nan nan nan nan nan nan nan nan nan nan nan nan nan -19 -19 nan -10 -5 -5 -7 -0 -0 -11 -11 -8 -4 nan nan -11 nan nan nan nan nan nan -2 nan nan nan nan nan nan nan nan nan nan nan nan nan nan nan nan nan nan nan nan nan nan nan nan nan nan nan nan nan nan nan nan nan nan nan nan nan nan nan -1 -0 -0 -0 -0
nan nan nan nan nan nan nan nan nan nan nan nan nan nan nan nan nan nan -14 -13 -13 -13 -10 -8 -8 nan nan -16 -3 -3 -1 -13 nan nan nan nan nan nan nan nan nan nan nan nan nan nan nan nan nan nan nan nan nan nan nan nan nan nan nan nan nan nan nan nan nan nan nan nan nan nan nan nan nan nan nan nan nan nan nan nan nan nan nan nan nan -0
nan nan nan nan nan nan nan nan nan nan nan nan nan nan nan -2 -9 -9 -15 -5 -5 -4 -10 -11 -11 nan nan -7 -4 -4 -9 nan nan nan nan nan nan nan nan nan nan nan nan nan nan nan nan nan nan nan nan nan nan nan nan nan nan nan -3 nan nan nan nan nan nan nan nan nan nan nan nan nan nan nan nan nan nan nan nan nan nan nan nan nan nan nan
nan nan nan nan nan nan nan nan nan nan nan nan nan nan -2 -2 -3 -3 nan -5 -5 -5 -8 -9 -9 nan -12 nan nan nan nan nan nan nan nan nan nan nan nan nan nan nan nan nan nan nan nan nan nan nan nan nan nan nan nan nan nan -1 -0 nan nan nan nan nan nan nan nan nan nan nan nan nan nan nan nan nan nan nan nan nan nan nan nan nan nan nan
nan nan nan nan nan nan nan nan nan nan -4 nan -3 -3 -3 -2 -3 -3 -3 nan nan nan nan -7 -7 -8 nan nan nan nan nan nan nan nan nan nan nan nan nan nan nan nan nan nan nan nan nan nan nan nan nan nan nan nan nan nan nan nan -1 nan nan nan nan nan nan nan nan nan nan nan -10 nan nan nan nan nan nan nan nan nan nan nan nan nan nan nan
nan nan nan nan nan nan nan -1 -0 -0 -1 -3 -3 -3 -4 nan nan nan -1 -3 -3 -3 nan -5 -5 -5 nan nan nan nan nan nan nan nan nan nan nan nan nan nan nan nan nan nan nan nan nan nan nan nan nan nan nan nan nan nan nan nan nan nan nan nan nan nan nan nan nan nan nan nan nan nan nan nan nan nan nan nan nan nan nan -2 -3 nan nan nan
nan nan nan nan nan nan -0 -0 -1 -1 -2 -2 -2 -2 nan nan -1 -1 -0 -3 -3 -3 -4 -7 -7 -7 nan nan nan nan nan nan nan nan nan -27 nan nan nan nan nan nan nan nan nan nan nan nan nan nan nan nan nan nan nan nan nan nan nan nan nan nan nan nan nan nan nan nan nan nan nan nan nan nan nan nan nan nan nan nan nan nan nan nan nan nan
nan nan nan nan nan -0 -1 -1 -2 -2 -2 -2 -3 -3 -3 -3 -1 -1 -2 nan nan nan -6 -6 -6 -4 nan nan nan nan nan nan nan nan nan -23 -7 -7 -22 nan nan nan nan nan nan nan nan nan nan nan nan nan nan nan nan nan nan nan nan nan nan nan nan nan nan nan nan nan nan nan nan nan nan nan nan nan nan nan nan nan nan nan nan nan nan nan
nan nan nan -0 -0 -0 -0 -1 -2 -2 -3 -2 -3 -3 -3 -5 -6 -6 -2 -4 -4 nan -6 -6 -6 nan nan nan nan nan nan nan nan nan nan nan nan nan -23 nan nan nan nan nan nan nan nan nan nan nan nan nan nan nan nan nan nan nan nan nan nan nan nan nan nan nan nan nan nan nan nan nan nan nan nan nan nan nan nan nan nan nan nan nan nan nan
nan nan nan nan nan -1 -1 -1 -2 -2 -1 -1 -2 -2 nan -6 -6 -6 -5 -4 -4 -5 -4 -4 -4 nan nan nan nan nan nan nan nan nan nan nan nan nan nan nan nan -20 nan nan nan nan nan nan nan nan nan nan nan nan nan nan nan nan nan nan nan nan nan nan nan nan nan nan nan nan nan nan nan nan nan nan nan nan nan nan nan nan nan nan nan nan
-0 -0 -0 -1 -1 -1 -0 -0 -1 -1 -2 -2 -3 -3 nan -6 -6 -6 -6 -6 -6 -4 -1 -4 -4 nan nan nan nan nan nan nan nan nan nan nan nan nan nan nan nan nan -17 -14 -14 -11 nan nan nan nan nan nan nan nan nan nan nan nan nan nan nan nan nan nan nan nan nan nan nan nan nan nan nan nan nan nan nan nan nan nan nan nan nan nan nan nan
-0 -0 -0 -0 -0 -0 -0 -1 -2 -2 nan -2 -3 -3 nan -0 -0 -0 -3 -6 -6 -5 nan nan nan nan nan nan nan nan -1 -3 nan nan nan nan nan nan nan nan nan nan nan nan nan -15 -13 -18 -18 -17 nan nan nan nan nan nan nan nan nan nan nan nan nan nan nan nan nan nan nan nan nan nan nan nan nan nan nan nan nan nan nan nan nan nan nan nan
-0 -0 -0 -0 -0 -0 nan nan nan nan nan -2 -3 -3 -4 nan -5 -5 -5 -6 -6 nan nan nan nan nan nan nan nan nan nan nan nan nan nan nan nan nan nan nan nan nan nan nan nan nan nan nan nan -19 -11 -11 nan nan nan nan nan nan nan nan nan nan nan nan nan nan nan nan nan nan nan nan nan nan nan nan nan nan nan nan nan nan nan nan nan nan
-0 -0 nan nan nan -0 nan nan -0 -0 nan nan nan nan nan nan nan nan nan -6 -6 -6 nan nan nan nan nan nan nan nan nan nan nan nan nan nan nan nan nan nan nan nan nan nan nan nan nan nan nan nan nan -1 nan nan nan nan nan nan nan nan nan nan nan nan nan nan nan nan nan nan nan nan nan nan nan nan nan nan nan nan nan nan nan nan nan nan
Wind_Speed
1 1 1 2 2 3 3 5 5 5 4 4 4 4 4 4 4 4 5 6 6 6 6 6 7 7 9 10 11 12 13 13 14 14 14 15 15 16 16 16 17 17 17 17 17 17 17 17 17 17 17 17 17 17 17 17 18 18 18 18 18 18 19 19 19 19 20 20 20 20 20 20 20 21 21 21 21 21 21 22 22 22 22 23 23 23
2 2 2 3 3 3 3 5 5 5 5 4 4 4 4 4 4 4 4 5 5 6 6 6 7 7 8 9 11 12 13 13 14 14 15 15 16 16 17 17 17 17 17 17 17 17 17 17 17 17 17 17 17 17 17 17 17 17 17 17 18 18 18 18 19 19 19 20 20 20 20 20 21 21 21 21 21 21 22 22 22 23 23 23 23 24
2 2 2 3 4 4 4 5 5 5 5 5 4 4 4 5 4 4 4 4 5 5 5 5 6 7 7 8 10 12 13 14 14 15 15 16 16 17 17 17 17 17 17 17 17 16 16 16 16 16 16 16 16 17 17 17 17 17 17 17 18 18 18 18 19 19 19 19 20 20 20 21 21 21 21 21 22 22 22 22 23 23 23 23 23 24
1 1 2 2 3 4 4 4 4 4 4 4 4 5 5 5 4 4 4 4 4 5 5 6 6 6 6 6 8 11 13 14 14 15 16 16 16 17 17 17 17 17 16 16 16 16 16 16 16 16 16 16 17 17 17 17 17 17 18 18 18 18 18 19 19 19 19 19 20 20 20 21 21 21 21 21 22 22 22 22 23 23 23 23 23 24
2 2 2 3 3 3 4 4 3 3 3 4 4 4 5 4 3 3 3 4 4 5 5 5 6 6 5 5 7 10 13 14 15 15 16 16 16 16 17 16 16 16 16 16 16 16 16 16 16 16 17 17 17 17 17 18 18 18 18 18 18 19 19 19 19 19 19 20 20 20 20 21 21 21 21 22 22 22 22 22 23 23 23 23 23 24
2 3 3 2 2 2 2 2 3 3 3 3 4 4 3 3 3 3 3 3 4 4 4 4 5 6 6 6 8 10 12 14 15 15 15 16 16 16 16 16 16 16 16 16 16 16 17 17 17 17 17 17 18 18 18 18 18 18 18 19 19 19 19 19 20 20 20 20 20 20 20 21 21 21 21 21 22 22 22 22 22 22 23 23 23 24
3 2 2 2 2 2 2 3 3 3 3 3 3 2 2 2 3 3 3 3 3 3 4 4 4 5 6 7 8 10 11 12 13 14 14 15 15 15 15 15 15 16 16 16 17 17 17 17 17 18 18 18 18 18 18 18 18 19 19 19 19 19 19 19 19 20 20 20 20 20 20 20 20 21 21 21 21 21 21 22 22 22 22 23 23 23
3 2 2 2 2 2 3 3 3 3 2 2 2 2 2 2 3 3 3 3 3 3 4 4 4 4 5 6 7 8 8 9 9 10 11 12 13 13 14 15 15 16 16 17 17 17 17 18 18 18 18 18 18 18 19 19 18 19 19 19 19 19 19 19 19 19 19 19 19 19 19 19 20 20 20 20 20 21 21 21 22 22 22 23 23 23
3 3 3 3 3 3 3 3 2 2 2 2 2 2 3 3 3 3 3 3 3 3 3 3 3 4 4 5 6 6 7 7 7 8 9 9 9 10 12 13 14 15 16 17 17 17 18 18 18 18 18 18 18 18 18 18 18 18 18 18 18 18 18 18 18 18 18 18 18 18 19 19 19 19 19 20 20 20 21 21 21 22 22 23 23 24
3 3 3 3 3 3 2 2 2 2 2 2 2 2 3 4 4 3 3 3 2 2 2 2 3 4 4 5 5 6 7 8 9 10 11 10 11 11 12 12 13 13 15 16 17 17 17 18 18 18 18 18 18 18 18 18 17 17 17 17 17 17 17 17 17 17 17 17 17 18 18 18 19 19 19 20 20 20 21 21 21 22 22 23 23 24
3 3 3 3 2 2 2 2 2 2 2 2 3 3 3 3 3 3 3 3 3 2 2 3 3 4 4 5 5 6 6 6 7 9 10 11 12 13 13 12 13 13 15 15 16 17 17 17 17 18 18 18 17 17 17 17 17 17 17 17 17 17 17 17 17 17 17 17 17 17 18 18 19 19 20 20 20 21 21 21 22 22 22 23 23 24
3 3 2 2 2 2 2 2 2 2 2 2 3 3 3 2 1 2 3 3 4 4 4 3 3 3 4 5 5 5 5 5 6 6 6 7 8 8 9 9 10 11 12 13 14 15 16 17 17 17 17 17 16 16 16 16 16 16 16 16 16 16 16 16 16 16 17 17 17 18 18 19 19 20 20 20 21 21 21 22 22 22 23 23 23 24
2 2 2 2 2 2 2 2 2 2 2 2 2 2 2 1 1 2 2 3 4 4 4 4 4 4 4 5 5 5 5 5 5 5 5 4 4 4 5 5 6 7 7 8 9 10 13 14 15 15 16 15 15 15 16 15 15 15 15 15 15 16 16 16 16 17 17 18 18 19 19 20 20 20 21 21 21 22 22 22 22 23 23 23 23 24
2 2 2 2 2 2 2 2 2 2 2 1 1 1 2 2 2 2 2 3 3 4 4 5 5 5 4 5 4 4 4 5 5 5 5 4 4 4 4 5 6 6 6 6 7 8 10 11 11 11 14 14 14 14 14 14 15 15 15 15 16 16 17 17 17 18 18 19 19 20 20 20 21 21 21 21 21 22 22 22 23 23 23 23 23 24
2 2 3 3 2 2 2 2 2 2 2 1 1 1 2 2 2 2 2 3 3 4 4 5 5 5 4 4 4 3 4 4 4 4 5 5 4 4 4 5 6 6 6 6 7 7 9 9 8 8 9 11 12 12 13 14 15 16 16 16 17 17 18 18 19 19 19 20 20 20 20 21 21 21 21 21 22 22 22 22 23 23 23 23 23 24
2 2 2 2 2 2 2 2 2 2 2 1 1 1 2 2 2 2 3 3 3 4 4 4 5 5 4 3 3 3 3 3 4 4 6 6 5 4 5 5 6 7 7 7 7 7 7 7 7 7 8 11 13 15 16 16 16 17 17 18 18 19 19 19 20 20 20 20 20 21 21 21 21 21 22 22 22 22 22 23 23 23 23 23 24 24
2 2 2 3 3 3 2 2 2 2 1 1 1 1 1 2 2 2 2 3 3 3 3 4 4 4 3 3 3 3 3 3 4 5 6 6 6 5 5 5 6 7 7 7 7 7 7 7 7 7 8 11 14 16 17 17 18 18 19 19 20 20 20 20 20 20 21 21 21 21 21 22 22 22 22 22 22 22 23 23 23 23 23 23 24 24
2 2 2 3 3 2 2 2 1 1 1 1 1 1 1 2 2 2 2 3 3 3 3 3 3 3 3 3 3 3 3 4 4 5 6 7 6 5 4 5 6 7 7 7 7 7 6 7 6 7 9 14 16 18 19 19 19 20 20 20 20 20 20 21 21 21 21 21 21 22 22 22 22 22 23 23 23 23 23 23 23 23 23 24 24 24
2 2 2 2 2 2 2 1 1 1 1 1 2 2 2 2 2 2 3 3 3 4 4 4 4 4 4 4 4 4 4 4 5 5 6 7 7 6 4 5 6 7 7 7 7 7 6 6 8 11 14 17 18 19 19 20 20 20 20 20 21 21 21 21 21 22 22 22 22 22 22 22 23 23 23 23 23 23 23 23 23 23 24 24 24 24
2 2 2 2 2 2 2 2 1 1 2 2 2 2 2 2 3 3 3 3 3 4 4 4 5 5 4 5 5 5 4 5 5 5 5 7 7 6 5 5 6 7 7 6 6 6 6 6 8 10 14 16 18 19 19 20 20 20 21 21 21 21 22 22 22 22 22 23 23 23 23 23 23 23 23 23 23 23 23 23 24 24 24 24 24 24
3 3 3 2 2 2 2 1 2 2 3 3 2 2 2 3 3 4 4 3 4 4 4 5 5 5 4 5 5 5 5 5 5 5 4 5 5 5 4 4 5 6 7 6 6 6 6 7 7 8 11 15 17 19 20 20 21 21 21 22 22 22 23 23 23 23 23 23 23 23 23 23 23 23 23 23 23 23 23 24 24 24 24 24 24 24
3 3 3 3 2 2 2 2 2 3 3 2 2 2 3 3 3 4 4 4 4 4 5 5 5 5 6 6 6 6 6 5 5 5 4 5 6 6 4 4 4 5 7 6 6 6 7 7 7 8 11 16 18 20 21 21 22 22 22 23 23 23 23 23 23 23 23 23 23 23 23 23 23 23 23 23 23 23 24 24 24 24 24 24 24 24
3 3 3 2 2 2 2 2 2 2 2 2 2 3 2 3 3 4 4 4 4 5 5 6 6 6 6 7 7 6 6 5 5 4 4 5 6 5 4 4 4 5 6 6 6 6 7 7 7 9 11 16 19 20 21 22 22 23 23 23 23 23 23 23 23 23 23 23 23 23 23 23 23 23 23 23 24 24 24 24 24 24 24 24 24 24
3 3 3 2 1 1 1 1 1 1 1 1 2 2 2 3 4 4 4 4 5 5 5 6 6 7 7 7 7 6 6 5 4 3 3 4 5 5 4 4 5 6 6 6 6 6 7 8 8 8 9 14 18 20 21 22 23 23 23 23 24 23 23 23 23 23 23 23 23 23 23 23 23 23 23 24 24 24 24 24 24 24 24 24 24 24
3 3 2 2 2 2 3 3 3 3 2 2 2 2 3 4 5 5 5 5 5 5 6 6 7 7 6 6 6 5 4 4 3 3 3 4 4 5 4 4 5 6 6 6 6 6 7 8 8 8 8 12 16 19 21 22 23 23 23 23 23 23 23 23 23 23 23 23 23 23 23 23 23 23 23 24 24 24 24 24 24 24 24 24 24 24
5 5 5 6 7 7 8 8 8 8 7 5 4 4 4 4 4 5 5 5 5 5 6 6 7 6 5 4 4 4 3 3 3 3 3 3 4 4 4 4 4 5 6 6 6 6 7 8 9 9 8 10 13 17 20 21 22 23 23 23 23 23 23 23 23 23 23 23 23 23 23 23 23 23 23 23 24 24 24 24 24 24 24 24 23 23
8 9 10 10 10 10 10 10 11 11 11 10 9 7 5 4 5 5 6 5 5 5 5 6 6 6 5 4 4 4 3 3 2 2 3 3 4 4 4 4 4 5 6 5 5 6 8 9 9 9 9 9 10 13 17 19 21 22 22 23 23 23 23 23 23 23 24 23 23 23 23 23 23 23 23 23 23 23 23 24 24 24 23 22 20 19
8 8 9 9 9 10 10 10 11 11 12 12 12 11 8 5 5 6 6 5 4 4 5 6 6 5 4 4 4 4 3 3 3 3 3 3 4 4 4 4 4 4 5 5 5 6 8 8 9 9 9 9 9 10 14 17 19 20 21 22 23 23 23 23 23 23 23 23 23 23 23 23 23 23 23 23 23 23 23 23 23 23 21 18 14 11
7 7 7 8 8 9 9 9 10 11 11 12 12 11 8 5 5 5 5 4 4 4 5 6 6 5 5 5 4 4 4 4 4 4 3 3 3 4 3 3 3 4 4 5 5 5 6 6 6 7 7 9 9 9 10 13 15 16 17 20 21 22 22 23 23 23 23 23 23 23 23 23 23 23 23 23 23 23 23 24 23 20 16 13 10 9
4 5 5 6 7 7 7 7 8 9 10 11 11 10 7 5 5 5 5 4 4 5 5 6 6 5 5 5 4 4 4 4 3 3 2 2 3 3 3 3 4 4 4 4 5 5 5 4 4 5 6 8 9 8 8 9 10 11 12 15 17 18 20 21 21 22 22 22 22 23 23 23 23 23 23 23 23 23 23 23 21 17 11 9 9 8
4 4 4 4 4 4 4 5 5 6 7 8 9 8 6 5 5 5 5 5 5 5 5 5 5 5 5 4 4 4 3 2 2 2 2 2 2 3 3 4 4 4 3 3 4 4 5 4 4 4 5 7 8 9 9 9 9 9 9 10 11 13 17 19 20 20 20 21 21 22 22 22 22 22 22 22 22 22 22 23 20 16 10 9 8 8
4 4 4 4 3 3 3 4 4 4 4 5 5 5 5 5 5 5 4 4 4 5 5 5 5 5 5 5 5 4 4 3 3 3 3 2 3 3 3 4 5 4 4 3 4 4 5 5 4 4 5 6 8 9 9 9 9 9 9 9 9 11 14 16 17 17 17 18 19 20 20 21 21 21 22 22 22 22 22 22 20 16 10 9 8 8
4 4 3 4 4 3 3 3 3 3 3 3 3 3 4 4 4 5 4 4 4 4 5 5 5 6 6 6 6 6 5 4 4 5 5 3 3 3 3 4 5 5 4 4 4 5 5 5 5 5 6 6 7 7 9 9 9 9 9 9 9 10 12 13 13 13 13 14 15 16 17 19 19 20 21 21 21 21 21 22 20 17 13 9 8 8
4 4 4 4 4 4 4 3 3 3 3 3 3 3 3 3 4 4 4 4 4 4 5 5 5 6 6 6 6 7 6 5 6 6 6 4 3 3 4 4 5 5 5 5 5 5 5 6 7 6 6 6 6 6 7 8 9 9 8 9 9 9 10 10 10 10 10 11 10 11 12 13 15 17 18 19 19 19 20 20 20 19 18 13 10 9
4 4 4 4 4 3 3 3 3 3 3 3 3 3 3 3 3 4 4 4 4 4 5 5 5 6 6 6 6 7 6 5 5 6 6 5 4 4 4 4 5 5 5 5 5 5 5 7 8 8 7 7 7 6 6 7 8 8 8 8 9 9 9 9 9 9 10 10 9 9 9 9 10 11 13 15 17 18 19 20 20 21 21 18 16 12
4 4 4 4 4 3 3 3 3 3 3 2 2 3 3 3 3 4 4 4 5 5 5 6 6 6 6 6 7 8 7 6 6 7 7 6 5 4 4 5 5 5 6 6 6 6 6 7 8 9 9 9 8 7 6 6 6 7 8 8 9 9 9 9 9 9 9 9 9 9 9 8 9 9 10 14 17 18 20 20 21 21 21 21 20 18
4 4 4 4 3 3 3 2 2 2 2 2 2 2 2 3 3 4 4 4 4 5 6 7 7 7 8 8 8 8 8 7 7 8 8 7 6 5 5 6 6 7 6 7 7 7 7 8 8 9 9 8 7 7 6 7 7 7 8 8 9 9 9 9 9 9 9 9 10 9 9 9 9 9 10 14 16 17 18 19 20 20 21 21 21 21
4 4 4 3 3 2 2 2 2 2 2 2 2 3 3 3 4 4 4 5 5 5 6 7 7 8 11 12 11 11 11 11 11 11 11 8 7 7 7 7 7 7 7 7 7 7 7 8 9 9 8 8 8 9 9 8 8 9 9 9 9 9 9 9 9 9 8 9 10 10 10 10 9 9 10 11 11 11 11 11 13 15 17 17 18 20
3 3 3 3 3 2 2 2 2 2 2 3 3 4 4 5 5 5 5 5 6 6 7 7 7 8 10 11 13 13 13 13 12 12 11 10 9 8 8 8 8 8 8 7 7 7 8 8 8 8 8 8 9 9 9 9 9 10 10 9 9 9 9 9 9 9 8 9 10 11 11 10 9 9 9 8 8 8 8 8 9 10 11 10 12 15
3 3 3 4 3 3 2 3 3 3 3 4 4 5 5 5 5 5 5 6 6 7 8 8 8 8 8 9 10 12 12 11 10 10 10 9 9 8 9 9 9 8 8 8 7 8 8 9 9 10 9 9 9 9 9 9 9 10 10 9 8 8 9 9 9 9 8 9 10 10 10 9 9 9 9 8 8 8 8 7 8 8 9 8 7 8
4 4 4 3 3 3 3 3 3 3 4 4 4 4 5 5 5 4 4 5 5 6 6 6 7 7 8 8 9 9 10 10 10 10 8 9 10 10 9 9 9 8 8 8 8 8 9 9 10 10 10 10 10 10 11 11 11 12 13 11 10 10 10 11 10 10 9 9 9 9 10 10 10 9 9 9 9 8 8 8 8 9 9 8 7 7
5 4 4 3 3 3 3 3 4 5 5 5 5 4 4 4 4 4 5 5 5 5 5 5 6 6 7 8 8 8 8 8 8 9 9 10 10 10 10 9 9 8 8 9 9 9 9 10 10 10 10 10 10 10 10 11 11 12 11 11 11 12 12 11 9 8 9 9 9 9 10 10 10 9 10 10 10 9 9 9 10 11 11 9 8 8
4 4 4 3 3 4 5 5 5 5 4 4 4 4 4 4 4 4 5 5 5 6 6 5 6 6 7 8 7 7 6 6 7 9 9 9 10 10 10 11 10 9 8 9 9 9 10 10 10 10 10 9 10 10 11 11 11 11 11 11 11 10 8 8 7 7 8 9 9 9 9 9 9 10 10 10 10 9 9 10 12 13 12 10 9 9
4 4 3 3 4 4 4 4 4 4 4 4 5 5 4 5 5 5 6 5 6 6 6 5 5 6 7 8 8 7 6 6 6 7 8 9 9 9 9 10 11 10 10 9 9 9 9 10 10 10 10 9 10 10 11 11 11 11 11 11 11 11 9 9 9 10 10 10 10 9 9 10 10 10 10 10 9 9 8 9 9 10 11 10 10 9
4 3 3 4 4 4 4 4 4 4 4 5 5 5 5 5 6 6 5 5 6 6 6 5 5 5 6 7 7 6 6 6 5 5 6 8 10 11 10 9 9 9 10 9 9 9 9 9 10 10 9 9 10 10 11 11 12 12 12 11 11 12 12 11 11 11 11 11 10 10 10 9 9 10 10 10 9 9 9 9 9 9 9 9 9 9
4 4 4 4 4 4 5 5 5 4 5 5 5 5 5 5 5 5 6 6 6 6 6 5 5 5 7 7 7 7 6 6 6 5 5 5 6 7 8 8 8 8 8 9 9 9 9 10 10 10 9 9 10 11 12 11 11 11 11 11 11 11 11 11 11 11 11 11 11 11 10 9 9 9 10 10 10 10 9 9 9 9 9 9 9 9
4 4 5 5 4 5 5 5 5 5 5 5 5 5 5 5 5 5 5 6 6 6 6 6 6 6 7 7 7 7 7 8 7 6 6 6 6 6 6 7 8 8 8 8 9 10 10 10 10 10 10 10 11 11 12 11 11 11 11 11 11 11 11 11 11 11 11 11 11 10 9 9 9 10 10 10 10 10 9 9 9 9 9 9 9 9
5 5 5 5 5 5 5 5 5 5 5 5 5 5 5 5 6 6 6 6 6 6 6 6 6 7 7 7 7 8 8 8 8 7 7 6 6 6 6 7 7 7 8 9 10 10 11 11 11 11 11 11 11 12 12 11 11 11 11 11 11 11 11 11 11 10 10 11 11 11 9 8 9 9 10 10 10 10 10 9 9 9 8 9 9 9
5 5 5 5 5 5 5 5 5 5 6 6 6 5 5 6 7 7 6 6 6 6 6 6 7 7 7 7 8 8 9 9 8 8 8 7 6 6 6 7 7 7 7 8 9 9 10 11 12 12 12 11 12 12 13 12 12 11 11 11 10 11 11 11 11 10 10 11 11 10 8 8 8 9 9 10 11 11 11 10 10 9 8 8 9 9
5 5 5 5 5 5 5 5 5 6 6 6 6 6 6 6 6 6 6 6 6 6 6 6 7 7 8 8 8 8 8 8 8 8 8 7 6 6 7 7 7 7 7 7 7 7 7 8 9 11 13 14 14 13 12 12 12 11 11 10 10 10 10 10 10 10 10 10 10 10 8 8 8 8 8 9 11 12 12 11 10 9 8 8 8 9
5 5 5 5 5 5 5 5 5 6 6 6 6 6 6 6 6 6 5 6 6 6 6 6 7 7 8 8 8 9 9 8 8 8 8 7 7 7 7 7 7 7 7 7 6 6 6 6 6 8 10 13 15 14 11 11 11 11 11 10 9 9 9 9 10 10 10 10 10 10 9 9 9 9 8 8 10 11 12 11 11 10 8 8 8 9
Wind_Direction
215 226 213 201 213 231 244 245 248 250 249 246 246 248 253 258 260 263 267 269 270 271 271 272 274 277 281 284 285 286 286 287 288 289 290 291 292 293 294 294 294 294 293 292 291 290 289 287 286 285 284 284 283 283 282 282 282 282 283 284 284 284 285 285 285 286 286 286 287 287 288 289 289 290 290 291 291 290 290 289 289 289 289 288 288 287
201 207 207 205 212 226 243 246 249 251 252 250 249 250 255 262 267 270 271 270 270 269 270 273 275 277 280 283 286 287 288 289 290 290 291 292 293 294 294 294 294 293 292 291 290 289 288 286 285 284 284 283 283 283 282 282 282 282 283 283 284 284 285 286 286 286 287 287 288 288 288 289 289 290 290 290 290 289 288 288 287 287 287 286 286 285
196 199 202 205 213 222 237 242 245 246 247 249 251 254 260 266 268 270 271 271 271 271 272 275 277 279 281 284 287 288 289 289 290 291 292 293 294 294 295 294 294 293 292 291 289 288 287 286 285 284 284 283 283 283 282 283 283 283 283 284 284 285 285 286 287 287 288 288 288 288 289 289 289 290 290 289 288 288 287 287 286 286 286 285 285 284
239 226 226 224 224 227 234 239 242 244 245 250 253 257 259 262 264 266 267 272 275 277 277 279 281 282 284 285 286 287 288 289 290 291 293 294 294 294 294 294 293 292 291 290 289 287 287 286 285 285 284 284 284 284 284 284 284 284 285 285 285 286 286 286 287 287 288 288 288 288 289 289 289 289 288 288 287 287 287 286 286 285 285 284 283 283
254 241 237 235 235 236 237 244 249 253 255 255 255 254 253 256 259 265 269 274 277 279 280 281 282 283 282 281 283 285 287 289 291 293 294 294 294 294 293 292 291 291 290 289 288 287 287 286 286 286 285 285 285 285 286 286 286 286 286 287 287 287 287 287 287 288 288 288 288 287 287 287 287 287 286 286 285 285 285 284 284 283 283 282 282 281
240 237 235 235 239 244 248 251 255 256 257 254 253 253 254 257 262 268 272 273 275 276 276 277 278 280 280 281 284 287 290 292 294 295 295 294 294 293 292 291 291 290 289 289 288 287 287 286 286 286 286 286 286 286 287 287 287 288 288 288 288 288 288 288 288 288 288 287 287 286 286 285 285 285 284 284 283 283 282 282 282 281 281 280 280 280
244 244 244 245 248 250 252 249 247 246 247 250 254 256 261 263 265 265 265 267 269 272 274 275 277 279 281 284 288 292 294 296 296 296 296 294 293 292 292 291 291 290 289 289 288 287 286 286 286 285 285 285 286 286 286 287 287 288 288 288 288 288 288 288 288 288 287 287 286 286 285 284 284 283 282 282 282 281 281 280 280 280 279 279 279 279
249 253 254 253 253 252 251 247 245 244 246 255 264 270 272 270 267 263 260 261 264 268 273 275 278 281 284 289 293 296 298 298 297 297 295 294 293 292 292 291 291 290 289 288 287 287 286 285 285 285 285 285 285 286 286 287 287 288 288 289 289 289 289 288 288 288 287 287 286 285 285 284 283 283 282 281 281 280 280 279 279 278 278 278 277 277
251 256 257 253 253 256 257 257 255 254 254 258 266 272 278 278 275 269 260 257 258 264 274 284 288 291 292 295 297 298 297 296 295 294 293 292 291 291 291 290 290 289 288 288 287 287 286 286 286 286 286 286 287 287 287 288 289 289 289 289 289 289 289 288 288 287 287 286 286 285 284 283 283 282 281 280 280 279 278 278 277 277 276 276 276 277
245 249 254 251 249 249 254 261 262 258 251 252 254 260 266 271 273 274 272 271 272 279 287 295 297 298 298 298 298 297 296 295 293 292 291 291 290 289 289 289 288 288 288 289 289 290 290 290 290 290 290 290 290 290 290 290 290 290 290 289 289 288 288 287 287 286 286 285 284 284 283 283 282 281 281 279 279 278 277 276 276 275 275 276 276 276
239 240 243 247 245 242 241 251 254 252 241 243 243 243 243 251 265 282 293 297 301 305 303 300 299 299 301 300 299 298 297 295 293 291 291 290 290 290 290 290 290 290 292 293 294 295 295 295 295 295 294 293 293 293 292 292 291 290 289 288 287 287 286 286 285 285 284 284 284 283 283 283 282 281 280 279 279 278 277 276 276 276 275 275 276 276
237 238 239 244 246 246 245 246 244 239 232 235 241 246 246 254 286 314 310 307 307 306 303 300 298 298 300 300 299 298 296 293 291 290 288 288 289 290 292 293 294 295 296 297 298 298 298 298 298 297 296 295 294 293 292 291 290 288 287 287 286 285 285 285 285 285 285 284 284 284 283 283 282 282 281 280 279 279 278 277 277 276 276 276 276 276
232 236 241 245 246 247 248 248 245 239 234 243 258 272 285 320 345 339 314 303 301 302 304 304 302 299 297 294 294 293 292 291 290 290 289 288 290 292 295 296 297 298 299 299 298 298 298 299 298 297 297 295 294 292 291 290 288 288 287 287 287 286 286 286 286 286 286 286 285 285 284 284 283 282 281 281 280 279 279 278 277 277 277 276 276 276
230 231 234 238 240 243 247 254 262 266 268 276 290 306 323 336 335 323 304 297 299 304 309 306 303 299 294 289 286 285 288 289 289 290 290 291 293 297 301 301 300 300 300 299 297 297 298 299 298 297 295 293 292 291 290 289 289 289 289 289 289 289 288 288 287 287 287 287 286 286 285 284 283 283 282 281 280 279 279 278 278 277 277 277 276 276
235 238 242 247 251 256 262 269 276 280 286 301 316 328 331 323 316 310 304 303 307 311 311 303 298 294 289 285 283 283 285 288 292 295 296 297 299 303 306 304 302 300 300 298 296 295 297 296 293 291 291 291 291 290 291 291 291 291 291 290 290 289 289 288 288 287 287 286 286 286 285 284 284 283 282 281 281 280 279 279 278 278 277 277 276 276
248 254 261 266 269 271 272 275 279 284 293 311 325 329 323 315 316 317 314 310 311 310 305 299 295 293 288 284 283 284 288 295 299 302 302 301 302 306 310 306 302 299 297 295 293 293 293 291 290 289 290 290 291 291 291 291 291 291 290 290 289 289 288 287 287 287 286 286 286 286 285 285 284 283 283 282 281 280 280 279 278 278 277 276 276 275
259 265 267 268 268 268 270 275 281 290 303 312 319 321 320 321 324 324 317 311 306 301 294 293 294 296 296 296 294 295 302 308 309 307 304 301 301 304 308 304 299 296 294 292 291 291 292 290 289 289 288 289 290 291 291 291 291 290 290 289 289 288 288 287 287 287 287 286 286 286 285 285 284 284 283 282 282 281 280 279 279 278 277 276 276 275
247 251 255 259 262 267 273 278 285 294 305 310 320 333 339 335 329 320 308 298 292 288 286 287 289 291 296 298 300 305 316 316 313 307 303 299 298 300 303 298 293 290 290 289 288 288 289 288 287 287 287 289 290 291 291 291 290 290 289 289 289 289 289 288 288 288 288 287 287 286 286 285 285 284 283 283 282 281 280 280 279 278 278 277 276 276
246 249 255 262 270 279 284 286 292 305 322 345 353 350 335 324 313 302 292 285 282 281 283 286 287 287 287 288 292 302 319 320 315 308 301 297 296 296 298 293 290 288 287 288 288 289 288 287 286 287 289 290 291 291 291 291 290 290 290 290 290 291 290 290 290 289 289 288 287 286 286 285 285 284 284 283 282 282 281 280 280 279 279 278 277 277
274 275 279 288 292 293 289 294 320 349 10 16 5 338 310 303 297 292 284 279 278 279 282 283 283 283 284 287 294 305 321 322 315 304 296 292 291 292 294 293 291 289 287 287 287 288 289 289 289 290 290 291 291 291 291 292 292 292 292 293 292 292 292 291 290 290 289 288 287 287 286 286 285 285 284 284 283 283 282 281 281 280 279 279 278 278
289 287 290 296 298 296 294 322 353 9 15 14 356 319 298 293 288 283 279 278 279 280 280 278 280 283 289 292 297 305 317 313 306 297 291 289 288 289 290 288 287 286 287 288 290 292 292 291 290 289 290 291 292 293 293 294 294 294 294 293 293 292 292 291 290 289 289 288 288 287 287 286 286 285 285 284 284 283 282 282 281 281 280 280 279 279
277 279 282 292 301 312 322 343 353 356 354 349 318 289 282 282 280 279 279 282 284 284 284 284 286 289 292 292 294 297 302 296 290 287 287 286 285 285 285 286 287 288 289 291 293 293 292 290 289 289 291 293 294 295 296 296 295 295 294 294 293 292 291 290 290 289 288 288 287 287 286 286 286 285 285 284 284 283 283 282 282 281 281 281 280 280
271 279 290 308 325 337 340 339 335 329 322 301 281 274 277 281 282 285 288 289 289 288 289 288 289 289 288 287 287 286 284 277 274 275 279 280 282 284 289 294 294 291 288 289 291 293 293 293 293 294 295 296 296 297 297 296 296 295 294 294 293 292 291 290 290 289 288 288 287 287 286 286 285 285 285 285 284 284 284 283 283 282 282 281 281 280
290 298 310 324 340 350 332 304 292 283 273 260 256 256 255 262 267 272 278 283 286 287 287 287 286 284 281 279 278 277 273 268 266 267 271 276 281 285 292 293 289 287 286 289 294 298 298 295 294 294 296 296 297 297 296 296 295 295 294 293 292 292 291 290 290 289 289 288 288 287 287 286 286 286 286 285 285 284 284 284 283 282 282 281 280 280
309 306 302 296 287 277 269 265 262 258 250 241 239 244 250 259 266 272 277 279 280 280 281 281 280 279 278 277 276 275 273 268 266 264 266 273 277 281 286 289 290 289 289 292 295 297 296 295 295 296 296 296 296 296 296 295 295 294 293 293 292 292 292 292 291 291 290 290 289 289 288 287 287 286 286 285 285 285 284 284 283 283 282 281 281 280
293 288 284 282 280 278 276 274 272 270 269 266 265 265 268 274 277 279 278 274 272 272 273 274 274 275 278 280 281 280 280 274 267 263 265 274 280 283 286 290 289 288 288 291 294 296 297 296 296 297 296 295 295 295 294 294 294 294 293 293 293 293 293 293 293 292 292 291 290 289 288 288 287 286 286 285 285 285 285 284 284 283 283 282 281 280
278 278 278 279 280 280 280 280 279 277 276 274 273 271 272 274 274 271 266 264 263 265 267 270 273 276 280 281 280 280 281 281 277 275 276 280 282 283 284 286 286 287 289 291 295 298 297 296 295 295 294 293 293 293 293 293 294 295 295 295 295 295 295 294 294 293 292 291 290 290 289 288 287 287 286 286 286 285 285 285 285 284 284 283 282 280
265 268 271 273 275 277 277 277 276 274 273 272 270 268 267 265 262 261 260 260 261 262 263 266 271 276 280 279 280 282 286 286 284 280 276 274 273 274 278 283 287 291 295 296 296 295 293 291 291 291 290 290 290 291 292 295 296 297 298 297 297 296 295 294 293 293 292 291 290 289 289 288 288 287 287 286 286 286 285 285 285 285 284 284 282 279
250 252 255 260 263 266 268 269 269 269 268 267 266 265 261 256 253 254 257 260 262 262 262 264 267 271 276 281 284 286 285 278 268 260 254 256 262 267 277 286 292 297 302 301 299 294 287 284 284 285 287 290 291 293 296 299 300 300 299 297 296 295 294 293 292 292 291 291 290 290 289 289 288 288 287 287 286 286 286 286 286 285 284 282 280 277
256 252 251 256 259 261 262 263 264 265 266 266 265 262 257 251 248 250 255 258 258 259 260 263 265 269 274 281 285 284 276 264 256 250 248 257 266 274 287 293 297 302 308 307 302 296 287 280 278 281 287 293 296 298 299 300 300 298 297 295 294 293 292 292 292 292 292 291 291 290 289 289 289 288 288 287 287 287 286 286 286 286 283 280 277 275
288 284 280 276 273 271 268 265 265 265 266 265 263 260 252 246 244 246 250 251 251 253 256 259 263 266 268 274 278 278 273 270 285 307 318 291 283 285 294 295 296 298 303 302 300 298 296 291 286 286 293 297 298 297 296 295 294 293 292 292 291 291 292 292 293 292 292 291 291 290 290 290 290 289 289 289 288 288 287 287 286 285 282 278 275 273
289 289 287 285 281 276 270 266 262 261 261 260 257 251 244 241 240 241 244 245 246 249 253 257 260 262 262 262 264 267 271 278 302 318 322 303 288 286 289 290 291 292 292 285 283 286 293 296 297 298 298 296 293 292 291 290 290 291 291 291 291 291 293 293 293 292 292 291 291 291 291 291 291 291 291 290 289 288 287 286 286 284 280 277 274 272
283 282 279 278 275 270 265 260 255 253 250 249 247 244 242 240 240 241 243 244 245 248 251 256 259 261 261 260 261 262 267 274 288 297 299 291 284 283 285 286 287 289 290 283 277 274 277 285 292 295 293 289 287 288 289 290 290 290 291 292 291 291 292 293 293 292 292 292 293 293 293 293 292 292 291 290 289 287 286 285 284 283 280 277 273 271
282 280 278 275 271 267 262 258 254 251 248 246 245 244 242 243 244 245 246 248 248 248 249 252 256 259 261 262 264 265 267 271 279 286 289 285 282 284 288 287 288 290 292 286 281 277 274 278 284 289 291 288 286 285 287 289 290 290 289 289 289 290 292 294 294 293 293 294 294 294 293 293 292 291 290 288 287 286 285 284 283 282 280 277 274 271
282 280 277 274 269 265 261 258 254 252 250 248 246 245 246 248 249 250 250 250 250 249 248 249 251 254 257 261 265 268 269 273 281 287 291 290 289 290 290 285 286 287 288 285 283 282 280 281 283 286 290 291 289 286 284 286 287 287 287 287 288 290 291 293 294 294 294 293 292 290 290 289 288 287 286 286 285 285 284 284 283 282 281 279 277 274
282 280 277 273 270 267 263 262 260 259 257 255 254 254 256 258 258 258 257 256 255 254 254 252 251 252 253 257 261 266 271 277 284 289 291 291 290 289 285 282 282 283 283 282 281 281 281 283 284 285 287 288 289 289 286 286 287 288 289 289 290 289 289 290 291 292 292 290 289 287 286 285 284 283 283 284 284 285 285 285 285 284 283 281 279 277
281 279 276 274 272 272 271 271 270 270 270 272 275 275 274 272 269 266 264 261 259 258 259 258 257 255 253 254 257 262 268 274 278 279 279 280 279 277 275 276 276 276 275 277 279 280 281 283 284 284 282 282 284 289 292 294 294 292 290 290 290 289 288 288 288 288 287 285 284 284 283 283 283 283 284 285 286 286 287 286 285 284 283 281 279 277
278 278 279 279 279 280 281 279 278 278 279 283 285 284 281 276 272 268 266 261 257 256 258 258 258 257 255 256 257 258 262 265 267 268 267 266 264 264 265 269 270 269 266 269 272 276 278 280 282 283 282 280 281 284 290 294 294 292 289 288 288 287 286 286 285 284 282 282 283 283 284 284 284 284 285 285 285 285 284 282 281 280 280 279 277 276
276 279 281 283 283 283 283 282 283 284 289 289 287 283 278 273 269 264 261 258 255 253 252 253 255 255 255 254 255 257 259 259 259 258 257 255 254 255 259 263 266 266 264 263 263 265 268 270 274 277 281 283 284 285 286 287 287 288 290 290 287 283 281 283 283 283 283 284 285 286 285 283 282 281 280 279 279 278 277 276 275 274 275 275 275 275
279 280 281 282 283 284 285 288 292 295 296 289 283 278 274 271 267 263 258 258 257 255 253 253 255 256 257 256 256 256 256 255 253 251 250 247 245 246 250 256 260 263 264 261 259 258 259 263 266 270 272 276 281 283 285 283 284 286 289 290 288 285 285 286 287 286 285 283 283 282 282 279 277 275 274 274 274 274 274 274 273 272 271 270 271 273
285 283 282 284 288 291 292 294 295 293 288 283 278 275 272 271 271 269 265 264 263 263 264 263 263 264 264 262 260 259 257 256 253 251 249 243 241 241 245 250 254 259 261 260 257 255 255 259 263 267 269 271 274 277 279 279 281 284 286 285 285 285 288 287 285 284 282 280 278 277 278 278 278 277 276 275 274 272 271 271 272 271 270 267 265 266
283 282 284 290 295 298 297 295 289 285 280 278 276 275 274 274 276 277 278 278 277 276 275 273 273 274 274 271 268 265 263 262 259 257 254 247 243 241 242 245 248 252 255 257 257 256 255 256 260 264 267 269 273 275 277 277 278 279 280 280 283 285 286 283 280 279 281 280 280 280 280 281 280 279 278 276 274 272 269 268 267 267 267 265 262 260
281 282 287 294 297 297 294 290 286 282 279 277 276 276 276 277 278 280 281 280 279 278 276 275 276 278 281 280 279 275 270 264 261 259 258 252 246 243 242 243 245 247 250 254 258 259 257 256 258 260 263 266 269 271 275 278 279 278 276 277 281 286 287 284 284 283 282 281 281 280 279 278 277 276 275 274 272 271 269 267 266 264 263 262 261 259
277 282 290 292 290 287 284 281 280 281 282 281 281 280 280 277 276 276 276 276 276 277 278 279 280 280 280 280 281 281 278 272 265 262 262 260 256 251 250 248 248 248 247 251 256 261 264 261 260 261 262 265 266 268 271 275 277 278 276 276 276 276 275 281 285 287 284 280 278 275 273 273 274 274 273 272 271 269 267 264 263 261 260 259 258 258
280 287 290 287 284 281 280 280 282 284 284 283 282 280 279 276 275 274 275 276 278 279 281 283 284 283 280 281 283 286 286 285 281 275 269 267 265 263 261 257 255 253 251 250 252 256 262 265 266 267 267 266 265 266 269 273 275 276 276 275 274 272 271 275 279 281 280 279 277 274 272 272 273 274 274 272 270 267 265 263 262 261 259 256 255 254
285 287 286 284 284 284 285 287 288 288 286 283 281 279 277 276 275 275 275 277 279 281 281 280 279 278 279 284 287 290 291 290 287 284 280 275 270 267 265 263 261 259 258 255 254 254 255 260 266 271 273 271 267 266 265 269 273 275 276 276 275 274 274 274 274 274 275 276 276 275 273 273 273 273 272 272 271 268 265 263 261 260 260 257 255 253
288 287 287 287 288 289 289 289 288 287 284 282 280 279 278 278 277 277 276 276 278 279 279 278 275 274 276 281 285 288 290 291 291 290 288 285 281 278 275 271 267 265 263 261 260 258 257 258 261 264 269 271 271 270 268 269 270 272 275 276 275 275 274 273 273 273 273 273 274 275 276 275 274 272 272 272 272 271 268 265 261 259 258 257 256 254
291 289 288 289 289 288 287 286 285 283 282 281 281 280 280 279 278 278 278 278 278 279 280 279 277 276 276 278 280 283 285 287 289 290 290 289 287 283 279 276 273 270 267 266 265 264 262 260 259 259 260 264 268 271 272 271 270 270 272 273 273 273 272 273 273 273 273 272 272 273 274 274 273 273 274 274 274 272 271 269 265 261 258 257 256 255
286 286 285 285 284 282 280 280 280 279 279 281 281 282 281 281 281 281 281 280 279 278 277 277 277 277 278 279 280 281 283 284 285 286 288 288 286 285 282 280 278 276 274 271 270 268 267 264 259 256 253 256 260 266 270 270 269 269 269 270 270 270 271 273 273 274 274 274 273 272 271 271 271 272 274 275 275 276 276 274 271 266 262 259 257 256
282 281 280 279 278 278 278 278 278 278 279 281 284 285 286 285 283 280 278 276 274 272 271 272 274 276 278 280 281 282 282 282 282 282 282 284 285 285 284 283 283 283 283 280 278 276 274 270 262 255 249 248 251 257 264 267 269 269 268 268 268 269 271 274 275 276 276 278 278 278 277 276 274 274 273 274 275 277 278 277 275 271 267 263 261 259
278 277 276 275 275 276 277 278 279 281 283 285 287 287 287 285 282 278 274 272 270 269 269 270 271 274 276 279 280 280 280 280 280 280 280 281 283 284 283 285 286 288 289 288 287 285 282 280 275 266 255 250 248 250 257 264 269 272 272 270 270 271 274 276 278 279 281 281 282 283 282 280 278 276 274 274 275 277 279 279 277 275 272 269 267 265